Location: Vlissingen
(51.4500°N, 3.5830°E)
Time: 12:33:38
(UTC+01:00)

N. Korean satellite - Pass Details

Date: 08 December 2021
Orbit: 447 x 491 km, 97.3° (Epoch: 21 January)

Event Time Altitude Azimuth Distance (km) Brightness Sun altitude
Rises 07:00:57 0° 3° (N) 2,469 10.0 -14.1°
Reaches altitude 10° 07:03:13 10° 350° (N) 1,588 8.9 -13.8°
Maximum altitude 07:06:03 25° 294° (WNW) 947 7.4 -13.4°
Drops below altitude 10° 07:08:52 10° 237° (WSW) 1,576 8.8 -12.9°
Sets 07:11:06 0° 224° (SW) 2,445 9.9 -12.6°
